www.pogodaiklimat.ru

Погода и климат >> Архив погоды >> Россия >> Краснодарский край >> Ейск


ПОГОДА в Ейске

  • Прогноз погоды в Ейске
  • Монитор погоды в Ейске

АРХИВ ПОГОДЫ в Ейске

Время (UTC), дата Ветер
(напр.,м/с)
 
Видим.   Явления Облачность Т
(С)
Тd
(С)
f
(%)
Тe
(С)
Тes
(С)
Комфортность P
(гПа)
Po
(гПа)
Тmin
(С)
Tmax
(С)
R
(мм)
R24
(мм)
S
(см)
21 16.09 ЮЗ 4 10 км ясно +15.7 +9.3 66 +15 +15 1012.5 1009.7
00 17.09 ЮЗ 3 10 км ясно +15.4 +11.4 77 +15 +15 1011.7 1008.8
03 17.09 Ю 3 10 км ясно +12.7 +11.3 91 +11 +11 1011.1 1008.2 +12.7
06 17.09 З 7 10 км 5/5 600 м
[Sc diur, vesp]
+21.4 +16.5 74 +25 +26 комфорт 1010.9 1008.1 +12.7
09 17.09 З 7-11
{12}
10 км 6/6 600 м
[Sc diur, vesp]
+23.6 +15.5 60 +27 +28 жарко 1010.3 1007.5
12 17.09 З 7-11
{12}
10 км 8/3 600 м
[Cu hum Ci sp]
+23.6 +15.2 59 +26 +28 жарко 1009.6 1006.8
15 17.09 ЮЗ 7-11
{13}
10 км 10/3 600 м
[Cb cap Ac As]
+21.7 +13.5 60 +24 +24 комфорт 1008.6 1005.8 +24.6
18 17.09 ЮЗ 6
{11}
10 км 10/4 600 м
[Sc diur, vesp Ac und]
+21.2 +15.3 69 +24 +24 комфорт 1009.3 1006.5
21 17.09 СЗ 4
{10}
10 км 9/9 600 м
[Sc]
+19.3 +17.4 89 +21 +21 комфорт 1009.6 1006.7
00 18.09 СЗ 3 10 км 10/10 600 м
[Sc diur, vesp]
+18.5 +13.6 73 +19 +19 1009.8 1006.9
03 18.09 ЮЗ 2 10 км 8/8 600 м
[Sc]
+14.5 +12.9 90 +14 +14 1009.8 1007.0 +14.1
06 18.09 ЮЗ 5 10 км 6/0
[Ac cast]
+20.8 +14.9 69 +24 +25 комфорт 1009.4 1006.6 +13.2
09 18.09 ЮЗ 13-18
{20}
10 км 9/9 600 м
[Cb calv]
+24.2 +17.0 64 +28 +28 душно 1007.4 1004.7
12 18.09 ЮЗ 11-18
{24}
10 км 10/10 600 м
[Cb calv]
+25.0 +16.6 60 +29 +29 душно 1006.1 1003.4
15 18.09 СЗ 12-17
{18}
10 км слаб. ливневой дождь 10/10 600 м
[Cb calv]
+19.3 +12.3 64 +19 +19 1009.3 1006.5 +25.6
18 18.09 СЗ 13-17
{19}
10 км в посл. час ливневой дождь 10/10 600 м
[Cb calv]
+17.6 +8.9 57 +16 +16 1012.0 1009.1
21 18.09 СЗ 9-13
{17}
10 км 10/10 600 м
[Cb calv]
+16.0 +2.6 41 +14 +14 1015.1 1012.2
00 19.09 СЗ 9-14
{15}
10 км ясно +14.8 +5.5 54 +13 +13 1016.5 1013.6
03 19.09 СЗ 7-11
{14}
10 км 3/3 600 м
[Sc diur, vesp]
+13.4 +5.8 60 +11 +11 1018.1 1015.2 +13.3
06 19.09 СЗ 5
{11}
10 км 3/3 600 м
[Cu med, cong]
+14.4 +6.6 59 +13 +14 1019.8 1016.9 +13.3
09 19.09 З 5 10 км 3/3 600 м
[Sc]
+15.9 +5.6 50 +15 +19 1020.7 1017.8
12 19.09 З 4 10 км 3/3 600 м
[Cu hum Ci fib]
+16.6 +6.0 50 +16 +19 1020.3 1017.4
15 19.09 З 4 10 км 3/1 600 м
[Cu hum Ci fib]
+16.3 +6.6 53 +16 +16 1020.0 1017.1 +16.9
18 19.09 Ю 4 10 км 3/3 600 м
[Sc]
+11.3 +5.3 67 +9 +9 1020.4 1017.5
21 19.09 Ю 2 10 км 4/0
[Ci fib]
+10.1 +6.4 78 +9 +9 1019.9 1016.9
00 20.09 Ю 3 10 км 10/0
[Ci fib]
+10.0 +6.5 79 +8 +8 1019.4 1016.4
03 20.09 Ю 2 10 км 10/0
[Ci fib]
+11.9 +8.5 80 +11 +11 1018.7 1015.8 +9.0
06 20.09 СВ 2 10 км 10/3 600 м
[Cu hum Ci fib]
+16.0 +8.8 62 +16 +18 1017.9 1015.1
09 20.09 СВ 2 10 км 10/10 600 м
[Sc diur, vesp]
+16.8 +5.5 47 +17 +17 1017.1 1014.2
12 20.09 Ю 6 10 км слаб. ливневой дождь 10/10 600 м
[Cb calv]
+14.0 +8.9 71 +12 +12 1016.6 1013.6
15 20.09 Ю 6 10 км {ливн. осадки} 10/10 600 м
[Cb calv]
+11.7 +6.9 72 +9 +9 1015.9 1013.0 +17.0 0.0
18 20.09 Ю 4 10 км {ливн. осадки} 3/3 600 м
[Sc diur, vesp]
+8.8 +7.4 91 +6 +6 1016.5 1013.6
21 20.09 ЮЗ 5
{10}
10 км в посл. час ливневой дождь 10/10 300 м
[Cb calv]
+9.2 +7.9 92 +6 +6 1016.4 1013.4
00 21.09 ЮЗ 4 10 км {ливн. осадки} 10/10 300 м
[Sc diur, vesp]
+8.4 +7.3 93 +5 +5 1016.2 1013.2
03 21.09 Ю 2 10 км 4/4 600 м
[Sc diur, vesp]
+9.6 +5.4 75 +8 +8 1016.1 1013.1 +7.7 3
06 21.09 СЗ 5 10 км 3/3 600 м
[Sc diur, vesp]
+13.0 +9.3 78 +11 +12 1017.1 1014.1 +6.7
09 21.09 СЗ 6
{10}
10 км 3/3 1500 м
[Sc diur, vesp]
+14.4 +6.4 59 +13 +15 1017.7 1014.8
12 21.09 З 5 10 км слаб. ливневой дождь 8/8 600 м
[Cb cap]
+14.2 +4.4 52 +13 +13 1017.7 1014.8
15 21.09 СЗ 7-11
{11}
10 км {ливн. осадки} 8/8 600 м
[Cb calv]
+14.5 +3.2 47 +13 +13 1018.0 1015.1 +15.7 0.3
18 21.09 С 8-11
{13}
10 км {ливн. осадки} 8/8 600 м
[Cb cap]
+13.4 +3.5 51 +11 +11 1020.2 1017.3
21 21.09 СЗ 5
{11}
10 км 9/9 600 м
[Sc diur, vesp]
+12.5 +4.3 57 +10 +10 1020.8 1017.8
00 22.09 З 6 10 км 6/6 600 м
[Sc diur, vesp]
+12.1 +4.2 58 +10 +10 1020.6 1017.7
03 22.09 ЮЗ 3 10 км 3/3 600 м
[Sc diur, vesp]
+8.4 +3.1 69 +6 +6 1020.2 1017.2 +8.1
06 22.09 З 9-13
{13}
10 км 9/3 600 м
[Sc diur, vesp Ac As Ci fib]
+15.6 +3.0 43 +14 +14 1019.1 1016.2 +7.9
09 22.09 З 9-14
{18}
10 км 10/10 600 м
[Cb calv]
+15.8 +7.5 58 +14 +14 1017.8 1014.9
12 22.09 З 11-17
{19}
10 км {ливн. осадки} 10/10 600 м
[Cb calv]
+18.3 +8.7 53 +17 +17 1015.9 1013.1
15 22.09 З 9-14
{19}
10 км 10/10 600 м
[Cb calv]
+18.3 +9.2 55 +18 +18 1015.5 1012.6 +18.9
18 22.09 З 5
{15}
10 км 8/8 600 м
[Cu med, cong]
+16.7 +10.3 66 +16 +16 1016.3 1013.4
21 22.09 З 4
{10}
500 м 8/3 2000 м
[St]
+15.0 +10.9 76 +14 +14 1016.0 1013.1
00 23.09 З 6-10
{13}
10 км 6/6 600 м
[]
+16.2 +12.5 79 +15 +15 1015.4 1012.5
03 23.09 З 6-10
{13}
10 км 10/10 600 м
[Cb calv]
+16.6 +13.9 84 +15 +15 1015.3 1012.4 +14.6
06 23.09 З 6
{11}
10 км 3/3 600 м
[Cu med, cong]
+16.9 +13.5 80 +16 +17 1016.1 1013.2
09 23.09 СЗ 6 10 км 3/3 600 м
[Cu hum]
+17.9 +13.7 76 +17 +20 1016.2 1013.3
12 23.09 СЗ 5 10 км 8/8 600 м
[Cb calv]
+18.0 +14.5 80 +18 +18 1016.0 1013.1
15 23.09 В 5
{12}
10 км 8/8 600 м
[Cb calv]
+13.0 +8.1 72 +11 +11 1017.5 1014.6 +19.3
18 23.09 В 4
{10}
10 км 10/10 600 м
[Sc diur, vesp]
+11.7 +5.5 66 +10 +10 1018.5 1015.6

 

Местоположение метеостанции Ейск (Краснодарский край, Россия): широта 46.80 долгота 38.27 высота над уровнем моря 3 м.

В архиве по умолчанию представлена погода в Ейске за последнюю неделю. Архивные данные за месяц целиком и за предыдущие месяцы, начиная с января 2011 года, Вы можете получить, выбрав интересующий диапазон дат из раскрывающегося списка и нажав кнопку "Ввод!".


*Определитесь, кто Вы:
робот инопланетянин человек

Внимание! Время в таблицах - всемирное. Для получения местного времени необходимо прибавить поправку, которая равна 3 ч.

Смотрите также архив погоды в соседних городах и на ближайших метеорологических станциях:

Погода в Должанке (Краснодарский край, Россия) (43 км)
Погода в Маргаритово (Ростовская область, Россия) (48 км)
Погода в Мариуполе (Донецкая область, Украина) (64 км)
Погода в Староминская (Краснодарский край, Россия) (65 км)
Погода в Таганроге (Ростовская область, Россия) (65 км)
Погода в Приморско-Ахтарске (Краснодарский край, Россия) (86 км)
Погода в Матвеевом Кургане (Ростовская область, Россия) (97 км)
Погода в Каневской (Краснодарский край, Россия) (97 км)
Погода в Кущевской (Краснодарский край, Россия) (107 км)
Погода в Бердянске (Запорожская область, Украина) (114 км)

Пояснения к столбцам:

Ветер - указаны скорость ветра в м/с - средняя за 10 мин, порывы в срок и между сроками (в фигурных скобках) и направление, откуда дует ветер: С - северный, СВ - северо-восточный, В - восточный, ЮВ - юго-восточный, Ю - южный, ЮЗ - юго-западный, З - западный, СЗ - северо-западный.
Видимость - горизонтальная дальность видимости в метрах или километрах. При видимости от 1 до 10 км при отсутствии осадков обычно наблюдается дымка, при ухудшении видимости до 1 км и менее - туман. В сухую погоду видимость может ухудшаться дымом, пылью или мглою.
Явления - указаны атмосферные явления, наблюдавшиеся в срок или в последний час перед сроком; фигурными скобками обозначены явления, наблюдавшиеся между сроками (за 1-3 часа до срока); квадратными скобками обозначены град или гололедные отложения с указанием их диаметра в мм.
Облачность - указаны через наклонную черту общая и нижняя облачность в баллах и высота нижней границы облаков в метрах; квадратными скобками обозначены формы облаков: Ci - перистые, Cs - перисто-слоистые, Cc - перисто-кучевые, Ac - высококучевые, As - высокослоистые, Sc - слоисто-кучевые, Ns - слоисто-дождевые, Cu - кучевые, Cb - кучево-дождевые. Подробнее классификацию облаков см. в Атласе облаков (PDF).
T - Температура воздуха - температура, измеренная на высоте 2 м над землей.
Td - Температура точки росы - температура, при понижении до которой содержащийся в воздухе водяной пар достигнет насыщения.
f - Относительная влажность воздуха - влажноcть воздуха, измеренная на высоте 2 м над землей.
Te - Эффективная температура - температура, которую ощущает одетый по сезону человек в тени. Характеристика душности погоды. При расчете учитывается влияние влажности воздуха и скорости ветра на теплоощущения человека.
Tes - Эффективная температура на солнце - температура, которую ощущает человек, с поправкой на солнечный нагрев. Характеристика знойности погоды. Зависит от высоты солнца над горизонтом, облачности и скорости ветра. Ночью, в пасмурную погоду, а также при ветре 12 м/с и более поправка равна нулю.
P - Атмосферное давление - приведенное к уровню моря атмосферное давление.
Po - Атмосферное давление - измеренное на уровне метеостанции атмосферное давление.
Tmin - Минимальная температура - минимум температуры воздуха на высоте 2 м над землей.
Tmax - Максимальная температура - максимум температуры воздуха на высоте 2 м над землей.
R - Количество осадков - Количество выпавших осадков за период времени, мм. При наведении курсора мыши на число - период времени, за который выпало указанное количество осадков.
R24 - Количество осадков - Количество выпавших осадков за 24 часа, мм.
S - Снежный покров - Высота снежного покрова, см. При наведении курсора мыши на число - состояние снежного покрова и степень покрытия местности в баллах.